Regional Weather Roundup
Issued by NWS Charleston, WV

Home | Current Version | Previous Version | Text Only | Print | Product List | Glossary Off
Versions: 1 2 3 4 5 6 7 8 9 10 11 12 13 14 15 16 17 18 19 20 21 22 23 24 25 26 27 28 29 30 31 32 33 34 35 36 37 38 39 40 41 42 43 44 45 46 47 48 49 50

761
ASUS41 KRLX 220710
RWRRLX
West Virginia Regional Weather Roundup
National Weather Service Charleston WV
300 AM EDT SAT JUL 22 2017

Note: "fair" indicates few or no clouds below 12,000 feet with no
significant weather and/or obstructions to visibility.

WVZ003-220800-
Northern Panhandle of West Virginia

CITY           SKY/WX    TMP DP  RH WIND       PRES   REMARKS
WHEELING       CLOUDY    72  70  93 S3        29.97F
$$

WVZ009-220800-
Northwest West Virginia

CITY           SKY/WX    TMP DP  RH WIND       PRES   REMARKS
PARKERSBURG    MOCLDY    72  71  97 SE3       29.98S FOG
$$

WVZ006-220800-
Western West Virginia

CITY           SKY/WX    TMP DP  RH WIND       PRES   REMARKS
HUNTINGTON     PTCLDY    74  72  93 CALM      29.95F
$$

WVZ015-220800-
West Central West Virginia

CITY           SKY/WX    TMP DP  RH WIND       PRES   REMARKS
CHARLESTON     LGT RAIN  72  68  87 SE3       29.98F
$$

WVZ022-031-220800-
North Central West Virginia

CITY           SKY/WX    TMP DP  RH WIND       PRES   REMARKS
CLARKSBURG     FOG       68  67  96 NW3       29.98F VSB 3/4
MORGANTOWN     MOCLDY    71  68  90 CALM      29.99F
$$

WVZ025-035-042-045-220800-
Southern West Virginia

CITY           SKY/WX    TMP DP  RH WIND       PRES   REMARKS
BECKLEY        CLEAR     70  65  84 CALM      30.08F
LOGAN            N/A     73  72  94 CALM      30.01F
BLUEFIELD      PTCLDY    70  64  81 SW5       30.11F
LEWISBURG      CLEAR     66  64  92 CALM      30.07F
$$

WVZ047-220800-
Northern Mountains of West Virginia

CITY           SKY/WX    TMP DP  RH WIND       PRES   REMARKS
ELKINS         FOG       66  64  93 CALM      30.04F VSB 1
$$

WVZ052-220800-
Eastern Panhandle of West Virginia

CITY           SKY/WX    TMP DP  RH WIND       PRES   REMARKS
MARTINSBURG    CLOUDY    71  70  96 SE3       29.93S FOG
PETERSBURG     MOCLDY    69  68  99 CALM      29.98F FOG
$$




USA.gov is the U.S. government's official web portal to all federal, state and local government web resources and services.